Regional Weather Roundup
Issued by NWS

Home | Current Version | Previous Version | Text Only | Print | Product List | Glossary On
Versions: 1 2 3 4 5 6 7 8 9 10 11 12 13 14 15 16 17 18 19 20 21 22 23 24 25 26 27 28 29 30 31 32 33 34 35 36 37 38 39 40 41 42 43 44 45 46 47 48 49 50
000
ASUS42 KTBW 042116
RWRFL
FLORIDA REGIONAL WEATHER ROUNDUP
NATIONAL WEATHER SERVICE TAMPA BAY RUSKIN FL
500 PM EDT MON MAY 04 2015

NOTE: "FAIR" INDICATES FEW OR NO CLOUDS BELOW 12,000 FEET WITH NO
SIGNIFICANT WEATHER AND/OR OBSTRUCTIONS TO VISIBILITY.


FLZ001>010-012>015-112-114-115-042200-
PANHANDLE FLORIDA

CITY           SKY/WX    TMP DP  RH WIND       PRES   REMARKS
PENSACOLA      SUNNY     79  58  48 S15       30.18F
PENSACOLA NAS  MOSUNNY   79  64  60 S12       30.18F
MILTON NAS     MOSUNNY   82  58  43 S10       30.17
CRESTVIEW      PTSUNNY   82  53  36 E7        30.19F
DUKE FIELD     MOSUNNY   82  51  33 E7        30.17F
VALPARAISO     MOSUNNY   79  65  63 S14       30.18F
MARY ESTHER    SUNNY     78  63  59 S14       30.17F
PANAMA CITY    FAIR      80  61  52 S14       30.17F
TYNDALL AFB    MOSUNNY   82  50  32 SW16      30.17F
APALACHICOLA   SUNNY     83  54  36 VRB3      30.19F

STATION/POSITION SKY/WX   TEMP    WIND        PRES    WAVE   SWELL
                          AIR SEA DIR/SP/G            HT/PER HT/PER
                          (F)     (DEG/KT/KT) (MB)    (FT/S) (FT/S)
30.1N   87.6W              75 75  120/ 14/ 16 1021.6F   5/ 7   3/ 7
29.2N   88.2W              76 76  120/ 21/ 23 1022.1F   6/ 6
28.8N   86.0W              74 75  100/ 14/ 16 1022.4F   6/ 7   5/ 7
PANAMA CITY BEAC           75 76  170/ 14/ 16 1022.4F
CAPE SAN BLAS    NOT AVBL
TOWER C                    73      50/  6/  6 1022.3F
28.5N   84.5W              74 75   70/ 10/ 12 1021.9F   4/ 6   3/ 6

$$
FLZ011-016>038-118-127-128-134-139-239-042200-
NORTH FLORIDA

CITY           SKY/WX    TMP DP  RH WIND       PRES   REMARKS
MARIANNA       SUNNY     83  46  27 VRB5      30.18F
TALLAHASSEE    MOSUNNY   86  50  28 N5        30.18F
PERRY          PTSUNNY   83  56  39 E9        30.18F
CROSS CITY       N/A     83  56  39 E13G21    30.18F
LAKE CITY      FAIR      81  55  41 E14       30.21F
GAINESVILLE    CLOUDY    79  54  41 E14G22    30.21F
MAYPORT NAS    MOSUNNY   78  59  51 NE15      30.25F
JACKSONVILLE   MOSUNNY   77  55  46 NE16G23   30.24F
JAX NAS        MOSUNNY   81  53  37 E14       30.25S
JAX CRAIG      SUNNY     78  56  46 NE12G18   30.25F
JAX CECIL      SUNNY     77  54  44 E12G23    30.24S
FERNANDINA BEA FAIR      82  59  44 E13       30.25S
ST AUGUSTINE   SUNNY     77  61  57 NE15      30.25F

STATION/POSITION SKY/WX   TEMP    WIND        PRES    WAVE   SWELL
                          AIR SEA DIR/SP/G            HT/PER HT/PER
                          (F)     (DEG/KT/KT) (MB)    (FT/S) (FT/S)
SHELL POINT                76     210/  5/  6   N/A
KEATON BEACH               75     280/ 10/ 12 1021.9F
CEDAR KEY                  78      80/ 13/ 14 1022.0F
FERNANDINA                 75 74   50/ 10/ 15 1024.3F
30.7N   81.3W                 74                N/A     3/ 5   2/11
MAYPORT                    74 74   60/ 11/ 15 1024.8F
31.4N   80.9W              71 71   60/ 12/ 14 1025.3F   3/11   2/11
ST AUGUSTINE               72 73   50/  7/  8 1024.5F

$$
FLZ040-043>046-052-053-057-058-063-144-042200-
INTERIOR CENTRAL FLORIDA

CITY           SKY/WX    TMP DP  RH WIND       PRES   REMARKS
OCALA          MOSUNNY   79  52  38 NE7G18    30.19F
THE VILLAGES     N/A     79  59  50 NE12G21   30.08F
LEESBURG       PTSUNNY   80  58  46 E13G23    30.19F
SANFORD        CLOUDY    79  56  45 E14       30.20F
ORLANDO EXEC   MOSUNNY   80  54  40 E15G26    30.18F
ORLANDO INTL   PTSUNNY   81  54  39 E14G24    30.18S
KISSIMMEE      MOSUNNY   79  55  44 E18       30.18S
WINTER HAVEN   MOSUNNY   83  51  33 E20G26    30.18S
LAKELAND       PTSUNNY   81  55  41 MISG        N/A
BARTOW         MOSUNNY   81  52  36 E14G21    30.17F
OKEECHOBEE     PTSUNNY   77  61  57 E13G18    30.15F

$$
FLZ041-047-054-059-064-141-147-042200-
EAST CENTRAL FLORIDA

CITY           SKY/WX    TMP DP  RH WIND       PRES   REMARKS
ORMOND BEACH   MOSUNNY  N/A N/A N/A E12G17    30.22F
DAYTONA BEACH  PTSUNNY   78  59  51 E15G22    30.22F
DELAND           N/A     77  57  50 E15G22    30.22F
JFK SPACE CTR  PTSUNNY   78  59  52 E10G20    30.19S
TITUSVILLE     MOSUNNY   79  57  47 E17       30.20F
CAPE CANAVERAL PTSUNNY   78  60  53 E14       30.18F
PATRICK AFB    PTSUNNY   79  59  50 E16       30.17F
MELBOURNE      PTSUNNY   79  59  50 E18       30.18S
VERO BEACH     CLOUDY    79  60  52 E16       30.17F
FT PIERCE      CLOUDY    78  62  57 E12G23    30.15F

STATION/POSITION SKY/WX   TEMP    WIND        PRES    WAVE   SWELL
                          AIR SEA DIR/SP/G            HT/PER HT/PER
                          (F)     (DEG/KT/KT) (MB)    (FT/S) (FT/S)
28.5N   80.2W              75 77   70/ 16/ 19 1022.5F
28.9N   78.5W              74 78   70/ 16/ 19 1023.1F
TRIDENT PIER               78 77   60/ 13/ 16 1023.1F
28.4N   80.5W                 76                N/A     3/ 6   2/13
27.5N   80.2W                 78                N/A     5/12   3/12

$$
FLZ050-056-061-142-242-148-248-149-249-151-251-155-255-
160-260-042200-
WEST CENTRAL FLORIDA

CITY           SKY/WX    TMP DP  RH WIND       PRES   REMARKS
CRYSTAL RIVER  MOCLDY    82  54  36 E15G22    30.16F
INVERNESS      FAIR     N/A N/A N/A E10G16    30.17F
BROOKSVILLE    MOSUNNY   82  56  40 E17G25    30.15F
CLEARWATER     MOSUNNY   83  62  49 E16G24    30.13F
TAMPA INTL     PTSUNNY   83  55  38 E12G24    30.14F
TAMPA EXEC     MOSUNNY   82  57  42 E12G18    30.15F
PLANT CITY     MOSUNNY   81  57  44 E13G24    30.17F
MACDILL AFB    SUNNY     82  58  44 E17G23    30.13F
PETER O KNIGHT MOSUNNY   84  55  37 E18G26    30.14F
ST PETERSBURG  MOSUNNY   81  61  50 E22       30.13F
SARASOTA       MOSUNNY   84  53  34 E24G30    30.10F
VENICE         FAIR      82  54  36 E25G32    30.11F

STATION/POSITION SKY/WX   TEMP    WIND        PRES    WAVE   SWELL
                          AIR SEA DIR/SP/G            HT/PER HT/PER
                          (F)     (DEG/KT/KT) (MB)    (FT/S) (FT/S)
CEDAR KEY                  78      80/ 13/ 14 1022.0F
28.5N   84.5W              74 75   70/ 10/ 12 1021.9F   4/ 6   3/ 6
27.3N   84.2W                 77                N/A     5/ 7
CLEARWATER BEACH           80 76   80/ 10/ 13 1020.8F
MIDDLE TAMPA BAY           79     100/ 20/ 23 1020.8F
VENICE                     82 79   80/ 13/ 18 1019.2F

$$
FLZ066-069-070-075>078-162-262-165-265-042200-
SOUTHWEST FLORIDA AND KEYS

CITY           SKY/WX    TMP DP  RH WIND       PRES   REMARKS
PUNTA GORDA    PTSUNNY   83  52  34 E16G25    30.13F
FT MYERS       CLOUDY    82  55  39 E15G24    30.09F
SOUTHWEST INTL CLOUDY    81  55  40 E21       30.10F
NAPLES         CLOUDY    82  55  39 E18       30.08F
MARCO ISLAND   PTCLDY    81  57  44 E17       30.08F
IMMOKALEE      CLEAR    N/A N/A N/A E18G25    30.11F
MARATHON       CLOUDY    79  64  60 NE18G25   30.07F
KEY WEST NAS   CLOUDY    77  64  64 E12       30.08S
KEY WEST INTL  CLOUDY    77  64  64 E14G24    30.08F

STATION/POSITION SKY/WX   TEMP    WIND        PRES    WAVE   SWELL
                          AIR SEA DIR/SP/G            HT/PER HT/PER
                          (F)     (DEG/KT/KT) (MB)    (FT/S) (FT/S)
VENICE                     82 79   80/ 13/ 18 1019.2F
NAPLES                     81 78   70/  9/ 15 1019.0F
26.0N   85.6W              76 80   90/ 16/ 19 1019.6F   7/ 8   5/ 8
DRY TORTUGAS               77      90/ 22/ 25 1018.2F
NW FL BAY                  77     100/ 15/ 17 1019.2
SAND KEY                   77      80/ 21/ 24 1018.2R
SOMBRERO KEY               77      70/ 23/ 24 1018.4F
LONG KEY                   76 76   80/ 17/ 19 1019.2F
MOLASSES REEF              76 79   70/ 19/ 21 1018.6F

$$
FLZ067-068-071>074-168-172>174-042200-
SOUTHEAST FLORIDA

CITY           SKY/WX    TMP DP  RH WIND       PRES   REMARKS
W PALM BEACH   CLOUDY    78  63  59 E16       30.13F
FT LAUDER-EXEC CLOUDY    79  62  56 E15G21    30.12S
FT LAUDERDALE  CLOUDY    78  60  53 NE10      30.12S
POMPANO BEACH  CLOUDY    78  61  55 E12       30.12F
PEMBROKE PINES CLOUDY    79  58  48 E15       30.13F
OPA LOCKA      CLOUDY    79  59  50 E15       30.12F
MIAMI          CLOUDY    79  57  46 E17       30.11F
WEST KENDALL   CLOUDY    78  61  55 E20       30.10F
HOMESTEAD      CLOUDY    77  63  61 NE13      30.10F

STATION/POSITION SKY/WX   TEMP    WIND        PRES    WAVE   SWELL
                          AIR SEA DIR/SP/G            HT/PER HT/PER
                          (F)     (DEG/KT/KT) (MB)    (FT/S) (FT/S)
PORT EVERGLADES            77      70/ 12/ 16 1019.9F
VIRGINIA KEY               76 77   70/ 12/ 15 1019.5F
LAKE WORTH                 76 78   60/ 14/ 19 1020.3F
SETTLEMENT POINT           74      50/ 17/ 20 1021.0F

$$



USA.gov is the U.S. government's official web portal to all federal, state and local government web resources and services.